Weather in Berezovo

Russia / Kurgan Oblast     54°39′57″N   64°27′57″E
temp.,
°C
wind,
m/s
gust,
m/s
humid.,
%
clouds,
%
prec.,
mm/h
press.,
hPa
HPBL,
m
16 may, sun
sun1623:00+22wnw464097 0.0 101971
02:00+20wnw4849100 0.0 1019115
05:00+18wnw475710 0.0 1020103
08:00+23nw355016 0.0 1021259
11:00+29wnw453438 0.0 10201289
14:00+32wnw562326 0.0 10192893
17:00+32nw56217 0.0 10193553
20:00+27nw123516 0.0 101811
17 may, mon
mon1723:00+23wnw33366 0.0 101828
02:00+21wnw344277 0.0 101951
05:00+19nw33494 0.0 102031
08:00+24wnw344013 0.0 1020240
11:00+30w45273 0.0 10191580
14:00+31w582149 0.0 10183773
17:00+31wnw57206 0.0 10173589
20:00+23nw6114447 0.3 1017254
18 may, tue
tue1823:00+20w511485 0.6 1017164
02:00+19wnw5125398 0.0 1016190
05:00+17w366437 0.0 101694
08:00+23wnw585234 0.0 1015323
11:00+27wnw7113919 0.0 10142108
14:00+28nw810305 0.0 10142495
17:00+27nw810308 0.0 10132887
20:00+22n5104511 0.0 1014279
19 may, wed
wed1923:00+17n495882 0.0 1016196
02:00+14n7106911 0.0 1018780
05:00+13nne71063100 0.0 10201223
08:00+14nne79638 0.0 1022960
11:00+17nne78400 0.0 10231460
14:00+19ne68315 0.0 10231717
17:00+20ne6731100 0.0 10241785
20:00+16ene3447100 0.0 102480
20 may, thu
thu2023:00+12ne33520 0.0 102641
02:00+10ene335290 0.0 102727
05:00+9se115510 0.0 102810
08:00+15s11425 0.0 1028323
11:00+20wsw123417 0.0 10281272
14:00+22sw33295 0.0 10261686
17:00+24sw44275 0.0 10251789
20:00+19ssw45432 0.0 102469